Location: Newark
(21.1700°N, 79.6500°E)
Time: 22:35:57
(UTC+00:00)

N. Korean satellite - Pass Details

Date: 16 December 2019
Orbit: 454 x 507 km, 97.2° (Epoch: 27 January)

Event Time Altitude Azimuth Distance (km) Brightness Sun altitude
Rises 12:56:38 0° 210° (SSW) 2,597 11.1 -12.5°
Reaches altitude 10° 13:00:16 10° 249° (WSW) 1,714 10.8 -13.3°
Maximum altitude 13:01:14 11° 264° (W) 1,661 10.6 -13.5°
Drops below altitude 10° 13:02:12 10° 279° (W) 1,713 10.3 -13.7°
Sets 13:05:51 0° 317° (NW) 2,592 10.6 -14.5°
